Time,TemperatureF,DewpointF,PressureIn,WindDirection,WindDirectionDegrees,WindSpeedMPH,WindSpeedGustMPH,Humidity,HourlyPrecipIn,Conditions,Clouds,dailyrainin,SoftwareType,DateUTC
2013-12-09 00:06:00,33.5,32.0,30.27,ENE,74,2.0,3.0,95,0.00,,,0.00,weatherlink.com 1.10,2013-12-09 05:06:00,
2013-12-09 00:21:00,33.5,33.0,30.28,ENE,74,0.0,2.0,96,0.00,,,0.00,weatherlink.com 1.10,2013-12-09 05:21:00,
2013-12-09 00:37:00,33.6,33.0,30.27,ENE,74,1.0,2.0,96,0.01,,,0.01,weatherlink.com 1.10,2013-12-09 05:37:00,
2013-12-09 00:52:00,33.5,33.0,30.26,ENE,62,0.0,3.0,96,0.06,,,0.06,weatherlink.com 1.10,2013-12-09 05:52:00,
2013-12-09 01:07:00,33.6,33.0,30.26,West,279,0.0,5.0,96,0.10,,,0.10,weatherlink.com 1.10,2013-12-09 06:07:00,
2013-12-09 01:22:00,33.7,33.0,30.26,West,279,1.0,3.0,96,0.15,,,0.15,weatherlink.com 1.10,2013-12-09 06:22:00,
2013-12-09 01:37:00,33.7,33.0,30.25,NE,43,0.0,2.0,96,0.14,,,0.15,weatherlink.com 1.10,2013-12-09 06:37:00,
2013-12-09 01:52:00,33.7,33.0,30.25,ESE,107,1.0,2.0,96,0.09,,,0.15,weatherlink.com 1.10,2013-12-09 06:52:00,
2013-12-09 02:07:00,33.9,33.0,30.24,ESE,107,1.0,2.0,96,0.05,,,0.16,weatherlink.com 1.10,2013-12-09 07:07:00,
2013-12-09 02:22:00,34.0,33.0,30.23,SE,136,0.0,5.0,96,0.02,,,0.17,weatherlink.com 1.10,2013-12-09 07:22:00,
2013-12-09 02:37:00,34.2,33.0,30.24,SE,136,0.0,2.0,96,0.07,,,0.22,weatherlink.com 1.10,2013-12-09 07:37:00,
2013-12-09 02:52:00,34.2,33.0,30.23,SE,136,0.0,2.0,96,0.10,,,0.25,weatherlink.com 1.10,2013-12-09 07:52:00,
2013-12-09 03:07:00,34.1,33.0,30.20,SE,136,1.0,3.0,96,0.09,,,0.25,weatherlink.com 1.10,2013-12-09 08:07:00,
2013-12-09 03:22:00,34.1,33.0,30.23,SE,136,0.0,1.0,96,0.09,,,0.26,weatherlink.com 1.10,2013-12-09 08:22:00,
2013-12-09 03:37:00,34.1,33.0,30.22,SE,136,2.0,2.0,96,0.04,,,0.26,weatherlink.com 1.10,2013-12-09 08:37:00,
2013-12-09 03:52:00,34.2,33.0,30.22,SE,136,0.0,0.0,96,0.01,,,0.26,weatherlink.com 1.10,2013-12-09 08:52:00,
2013-12-09 04:07:00,34.4,33.0,30.22,SE,136,0.0,1.0,96,0.01,,,0.26,weatherlink.com 1.10,2013-12-09 09:07:00,
2013-12-09 04:22:00,34.5,34.0,30.21,SE,136,0.0,2.0,96,0.00,,,0.26,weatherlink.com 1.10,2013-12-09 09:22:00,
2013-12-09 04:37:00,34.4,33.0,30.20,SE,136,0.0,0.0,96,0.00,,,0.26,weatherlink.com 1.10,2013-12-09 09:37:00,
2013-12-09 04:52:00,34.4,33.0,30.20,SE,136,0.0,1.0,96,0.00,,,0.26,weatherlink.com 1.10,2013-12-09 09:52:00,
2013-12-09 05:07:00,34.5,34.0,30.20,SE,136,0.0,0.0,96,0.00,,,0.26,weatherlink.com 1.10,2013-12-09 10:07:00,
2013-12-09 05:22:00,34.6,34.0,30.18,SE,136,2.0,3.0,96,0.00,,,0.26,weatherlink.com 1.10,2013-12-09 10:22:00,
2013-12-09 05:37:00,34.7,34.0,30.18,SSE,147,2.0,3.0,97,0.00,,,0.26,weatherlink.com 1.10,2013-12-09 10:37:00,
2013-12-09 05:52:00,34.8,34.0,30.19,SSE,159,2.0,3.0,97,0.00,,,0.26,weatherlink.com 1.10,2013-12-09 10:52:00,
2013-12-09 06:07:00,34.7,34.0,30.18,SSE,155,2.0,4.0,97,0.01,,,0.27,weatherlink.com 1.10,2013-12-09 11:07:00,
2013-12-09 06:22:00,34.7,34.0,30.18,SSE,148,1.0,4.0,97,0.02,,,0.28,weatherlink.com 1.10,2013-12-09 11:22:00,
2013-12-09 06:37:00,34.8,34.0,30.18,SSE,148,3.0,4.0,97,0.03,,,0.29,weatherlink.com 1.10,2013-12-09 11:37:00,
2013-12-09 06:52:00,34.7,34.0,30.18,ESE,104,0.0,5.0,97,0.04,,,0.30,weatherlink.com 1.10,2013-12-09 11:52:00,
2013-12-09 07:07:00,34.8,34.0,30.18,ESE,104,0.0,2.0,97,0.04,,,0.31,weatherlink.com 1.10,2013-12-09 12:07:00,
2013-12-09 07:22:00,34.9,34.0,30.18,ESE,104,0.0,1.0,97,0.03,,,0.31,weatherlink.com 1.10,2013-12-09 12:22:00,
2013-12-09 07:37:00,35.0,34.0,30.18,ENE,57,2.0,2.0,97,0.02,,,0.31,weatherlink.com 1.10,2013-12-09 12:37:00,
2013-12-09 07:52:00,35.2,35.0,30.19,West,265,1.0,4.0,97,0.01,,,0.31,weatherlink.com 1.10,2013-12-09 12:52:00,
2013-12-09 08:07:00,35.3,35.0,30.19,West,265,1.0,2.0,97,0.00,,,0.31,weatherlink.com 1.10,2013-12-09 13:07:00,
2013-12-09 08:22:00,35.4,34.0,30.19,West,265,0.0,3.0,96,0.01,,,0.32,weatherlink.com 1.10,2013-12-09 13:22:00,
2013-12-09 08:37:00,35.5,35.0,30.18,South,186,1.0,3.0,96,0.04,,,0.35,weatherlink.com 1.10,2013-12-09 13:37:00,
2013-12-09 08:52:00,35.5,35.0,30.19,West,273,1.0,5.0,96,0.09,,,0.40,weatherlink.com 1.10,2013-12-09 13:52:00,
2013-12-09 09:07:00,35.6,35.0,30.19,SW,228,1.0,3.0,96,0.11,,,0.42,weatherlink.com 1.10,2013-12-09 14:07:00,
2013-12-09 09:22:00,35.8,35.0,30.18,South,183,3.0,3.0,96,0.11,,,0.43,weatherlink.com 1.10,2013-12-09 14:22:00,
2013-12-09 09:37:00,35.9,35.0,30.18,SE,144,0.0,6.0,96,0.09,,,0.45,weatherlink.com 1.10,2013-12-09 14:37:00,
2013-12-09 09:52:00,36.2,36.0,30.19,SE,144,2.0,3.0,97,0.07,,,0.47,weatherlink.com 1.10,2013-12-09 14:52:00,
2013-12-09 10:07:00,36.5,36.0,30.18,South,179,2.0,4.0,96,0.05,,,0.47,weatherlink.com 1.10,2013-12-09 15:07:00,
2013-12-09 10:22:00,36.6,36.0,30.18,SSW,197,2.0,4.0,96,0.05,,,0.48,weatherlink.com 1.10,2013-12-09 15:22:00,
2013-12-09 10:37:00,36.9,36.0,30.18,SSW,197,2.0,3.0,96,0.03,,,0.48,weatherlink.com 1.10,2013-12-09 15:37:00,
2013-12-09 10:52:00,37.3,36.0,30.17,South,190,0.0,3.0,96,0.01,,,0.48,weatherlink.com 1.10,2013-12-09 15:52:00,
2013-12-09 11:07:00,37.5,37.0,30.17,South,176,1.0,4.0,96,0.01,,,0.48,weatherlink.com 1.10,2013-12-09 16:07:00,
2013-12-09 11:22:00,37.7,37.0,30.17,South,176,1.0,3.0,96,0.00,,,0.48,weatherlink.com 1.10,2013-12-09 16:22:00,
2013-12-09 11:37:00,37.8,37.0,30.17,South,176,1.0,2.0,96,0.01,,,0.49,weatherlink.com 1.10,2013-12-09 16:37:00,
2013-12-09 11:53:00,38.2,38.0,30.15,South,173,2.0,4.0,97,0.01,,,0.49,weatherlink.com 1.10,2013-12-09 16:53:00,
2013-12-09 12:23:00,38.7,38.0,30.14,SSW,199,1.0,3.0,97,0.02,,,0.50,weatherlink.com 1.10,2013-12-09 17:23:00,
2013-12-09 12:38:00,38.8,38.0,30.13,SSW,199,0.0,3.0,97,0.02,,,0.51,weatherlink.com 1.10,2013-12-09 17:38:00,
2013-12-09 12:53:00,39.1,38.0,30.12,SSW,199,0.0,2.0,97,0.05,,,0.54,weatherlink.com 1.10,2013-12-09 17:53:00,
2013-12-09 13:08:00,39.5,39.0,30.11,SSW,199,0.0,3.0,97,0.05,,,0.54,weatherlink.com 1.10,2013-12-09 18:08:00,
2013-12-09 13:23:00,39.7,39.0,30.11,SSW,203,2.0,4.0,96,0.04,,,0.54,weatherlink.com 1.10,2013-12-09 18:23:00,
2013-12-09 13:38:00,39.9,39.0,30.11,SSW,205,0.0,1.0,97,0.02,,,0.54,weatherlink.com 1.10,2013-12-09 18:38:00,
2013-12-09 13:53:00,40.0,39.0,30.09,SSW,205,0.0,1.0,97,0.00,,,0.54,weatherlink.com 1.10,2013-12-09 18:53:00,
2013-12-09 14:08:00,40.4,40.0,30.09,SSE,154,2.0,3.0,97,0.00,,,0.54,weatherlink.com 1.10,2013-12-09 19:08:00,
2013-12-09 14:23:00,40.5,40.0,30.09,SSE,154,0.0,2.0,97,0.00,,,0.54,weatherlink.com 1.10,2013-12-09 19:23:00,
2013-12-09 14:38:00,40.9,40.0,30.09,SSE,154,0.0,2.0,97,0.00,,,0.54,weatherlink.com 1.10,2013-12-09 19:38:00,
2013-12-09 14:53:00,41.3,41.0,30.09,ENE,70,1.0,3.0,97,0.00,,,0.54,weatherlink.com 1.10,2013-12-09 19:53:00,
2013-12-09 15:08:00,41.5,41.0,30.08,ENE,70,0.0,2.0,97,0.00,,,0.54,weatherlink.com 1.10,2013-12-09 20:08:00,
2013-12-09 15:23:00,41.7,41.0,30.08,NNE,30,1.0,2.0,97,0.00,,,0.54,weatherlink.com 1.10,2013-12-09 20:23:00,
2013-12-09 15:38:00,41.9,41.0,30.08,ENE,64,0.0,3.0,97,0.00,,,0.54,weatherlink.com 1.10,2013-12-09 20:38:00,
2013-12-09 15:53:00,42.2,41.0,30.09,ENE,63,0.0,2.0,97,0.00,,,0.54,weatherlink.com 1.10,2013-12-09 20:53:00,
2013-12-09 16:08:00,42.5,42.0,30.09,ENE,63,0.0,2.0,97,0.00,,,0.54,weatherlink.com 1.10,2013-12-09 21:08:00,
2013-12-09 16:23:00,42.6,42.0,30.10,NE,52,1.0,3.0,97,0.00,,,0.54,weatherlink.com 1.10,2013-12-09 21:23:00,
2013-12-09 16:38:00,42.1,41.0,30.09,ENE,60,1.0,3.0,97,0.00,,,0.54,weatherlink.com 1.10,2013-12-09 21:38:00,
2013-12-09 16:53:00,41.9,41.0,30.10,NE,42,2.0,3.0,97,0.00,,,0.54,weatherlink.com 1.10,2013-12-09 21:53:00,
2013-12-09 17:08:00,41.8,41.0,30.10,NE,49,0.0,2.0,97,0.00,,,0.54,weatherlink.com 1.10,2013-12-09 22:08:00,
2013-12-09 17:23:00,41.6,41.0,30.10,NE,36,1.0,4.0,97,0.00,,,0.54,weatherlink.com 1.10,2013-12-09 22:23:00,
2013-12-09 17:38:00,41.5,41.0,30.09,NE,36,0.0,2.0,97,0.00,,,0.54,weatherlink.com 1.10,2013-12-09 22:38:00,
2013-12-09 17:53:00,41.5,41.0,30.10,NE,36,0.0,1.0,97,0.00,,,0.54,weatherlink.com 1.10,2013-12-09 22:53:00,
2013-12-09 18:08:00,41.5,41.0,30.10,NE,36,0.0,2.0,97,0.00,,,0.54,weatherlink.com 1.10,2013-12-09 23:08:00,
2013-12-09 18:23:00,41.4,41.0,30.10,NE,36,1.0,2.0,97,0.00,,,0.54,weatherlink.com 1.10,2013-12-09 23:23:00,
2013-12-09 18:38:00,41.5,41.0,30.10,NE,36,0.0,2.0,97,0.00,,,0.54,weatherlink.com 1.10,2013-12-09 23:38:00,
2013-12-09 18:53:00,41.5,41.0,30.11,NE,36,0.0,0.0,98,0.00,,,0.54,weatherlink.com 1.10,2013-12-09 23:53:00,
2013-12-09 19:08:00,41.5,41.0,30.11,NE,36,0.0,2.0,98,0.00,,,0.54,weatherlink.com 1.10,2013-12-10 00:08:00,
2013-12-09 19:23:00,41.6,41.0,30.11,NE,36,0.0,0.0,98,0.00,,,0.54,weatherlink.com 1.10,2013-12-10 00:23:00,
2013-12-09 19:38:00,41.7,41.0,30.12,NE,36,0.0,2.0,98,0.00,,,0.54,weatherlink.com 1.10,2013-12-10 00:38:00,
2013-12-09 19:53:00,41.9,41.0,30.11,NE,36,0.0,1.0,98,0.00,,,0.54,weatherlink.com 1.10,2013-12-10 00:53:00,
2013-12-09 20:08:00,42.1,42.0,30.12,NE,36,0.0,2.0,98,0.00,,,0.54,weatherlink.com 1.10,2013-12-10 01:08:00,
2013-12-09 20:23:00,42.3,42.0,30.12,NE,36,1.0,1.0,98,0.00,,,0.54,weatherlink.com 1.10,2013-12-10 01:23:00,
2013-12-09 20:38:00,42.2,42.0,30.11,NE,36,1.0,4.0,98,0.00,,,0.54,weatherlink.com 1.10,2013-12-10 01:38:00,
2013-12-09 20:53:00,41.9,41.0,30.10,North,5,2.0,4.0,98,0.00,,,0.54,weatherlink.com 1.10,2013-12-10 01:53:00,
2013-12-09 21:08:00,41.6,41.0,30.10,North,5,1.0,3.0,98,0.00,,,0.54,weatherlink.com 1.10,2013-12-10 02:08:00,
2013-12-09 21:23:00,41.4,41.0,30.10,North,5,0.0,2.0,98,0.00,,,0.54,weatherlink.com 1.10,2013-12-10 02:23:00,
2013-12-09 21:38:00,41.1,41.0,30.10,NNW,329,0.0,3.0,98,0.00,,,0.54,weatherlink.com 1.10,2013-12-10 02:38:00,
2013-12-09 21:53:00,41.1,41.0,30.09,NNW,329,0.0,1.0,98,0.00,,,0.54,weatherlink.com 1.10,2013-12-10 02:53:00,
2013-12-09 22:08:00,41.2,41.0,30.09,NNW,329,0.0,0.0,98,0.00,,,0.54,weatherlink.com 1.10,2013-12-10 03:08:00,
2013-12-09 22:23:00,41.2,41.0,30.08,NNW,329,0.0,0.0,98,0.00,,,0.54,weatherlink.com 1.10,2013-12-10 03:23:00,
2013-12-09 22:38:00,41.2,41.0,30.08,NNW,329,0.0,0.0,98,0.00,,,0.54,weatherlink.com 1.10,2013-12-10 03:38:00,
2013-12-09 22:53:00,41.3,41.0,30.07,NNW,329,0.0,1.0,98,0.00,,,0.54,weatherlink.com 1.10,2013-12-10 03:53:00,
2013-12-09 23:08:00,41.3,41.0,30.07,NNW,329,0.0,1.0,98,0.00,,,0.54,weatherlink.com 1.10,2013-12-10 04:08:00,
2013-12-09 23:23:00,41.4,41.0,30.07,NNW,330,1.0,2.0,98,0.00,,,0.54,weatherlink.com 1.10,2013-12-10 04:23:00,
2013-12-09 23:38:00,41.3,41.0,30.06,NNW,336,0.0,2.0,98,0.00,,,0.54,weatherlink.com 1.10,2013-12-10 04:38:00,
2013-12-09 23:53:00,41.3,41.0,30.06,NNW,336,1.0,2.0,98,0.00,,,0.54,weatherlink.com 1.10,2013-12-10 04:53:00,